Cloud_Cover
0 0 0 0 0 0 0 0 5 5 5 5 5 0 0 4 5 4 0 0 2 0 0 0 0 0 0 0 1 2 4 0
0 0 0 0 0 0 5 5 5 5 5 0 0 0 0 0 0 0 0 0 0 0 0 10 14 8 4 0 2 4 2 0
0 0 0 0 5 4 5 5 5 5 5 4 0 2 2 3 5 27 5 5 5 53 60 15 0 0 0 0 0 3 5 5
0 0 0 5 5 4 5 1 0 0 0 1 2 5 12 15 5 5 7 15 19 5 0 0 0 0 0 0 0 0 5 5
0 0 0 1 5 5 5 5 4 4 5 5 5 5 5 5 5 5 5 5 5 5 2 0 0 0 0 0 0 0 5 31
5 5 5 5 5 5 8 31 5 6 69 40 7 17 44 5 5 5 5 5 5 0 0 0 2 0 1 2 4 6 4 17
5 5 5 10 60 25 54 42 86 96 90 49 67 35 18 5 5 5 7 5 5 5 5 3 5 5 5 30 92 66 86 10
5 6 6 5 10 54 90 100 51 28 82 97 80 16 5 7 42 55 7 5 5 5 5 5 5 9 38 88 66 98 100 100
74 6 80 95 88 96 73 7 8 35 51 15 19 87 90 73 85 10 34 13 10 5 13 5 6 90 91 87 19 100 100 100
44 5 66 100 100 100 100 100 99 62 11 66 80 67 64 69 95 100 99 100 98 99 79 54 10 41 28 96 100 100 100 100
32 66 82 93 96 60 46 56 39 11 48 85 100 97 74 97 73 42 85 97 66 33 39 96 58 92 98 100 100 100 100 100
89 18 16 50 37 30 7 40 96 100 100 100 100 100 57 70 36 70 99 76 88 81 65 76 95 100 100 100 100 100 100 100
29 5 6 5 5 5 83 100 100 100 100 100 90 86 79 100 88 22 31 97 88 98 100 100 100 100 100 100 100 100 100 100
42 19 5 5 9 97 100 100 100 100 100 100 100 99 96 50 54 95 51 98 100 100 99 100 100 100 100 100 100 100 100 100
5 40 9 49 100 100 100 100 100 100 100 100 97 84 48 95 100 98 99 100 97 96 95 100 100 100 100 100 100 100 100 100
9 92 100 100 100 100 100 100 100 100 100 93 60 48 100 96 97 100 100 100 100 100 93 100 100 84 100 100 100 100 100 100
100 100 100 100 100 100 100 100 100 77 100 100 99 73 22 15 5 5 8 98 100 100 100 100 100 100 100 100 100 87 100 100
100 100 100 100 100 77 92 43 64 34 22 16 12 13 5 5 5 5 5 5 5 5 5 51 97 96 89 94 54 18 19 46
100 100 100 100 39 10 69 60 62 16 5 5 72 83 48 5 5 5 5 5 5 5 6 23 50 50 32 41 67 100 100 100